Hourly Data Report for October 02, 2015

All times are specified in Local Standard Time (LST). Add 1 hour to adjust for Daylight Saving Time where and when it is observed.

KAMLOOPS A
BRITISH COLUMBIA

50°42'09.000" N
120°26'55.000" W
345.30 m
1163781
71887
YKA

Download Data

Hourly Data (October 2015)
Hourly Data Report for October 2, 2015
Temp Definition
°C
Dew Point Temp Definition
°C
Rel Hum Definition
%
Wind Dir Definition
10's deg

Wind Spd Definition
km/h
Visibility Definition
km
Stn Press Definition
kPa
Hmdx Definition


Wind Chill Definition


Weather Definition


TIME
00:00 Legend Double Dagger 8.5 4.5 76 36 3 64.4 97.74     LegendNANA
01:00 Legend Double Dagger 7.6 4.4 80 7 3 64.4 97.75     Clear
02:00 Legend Double Dagger 7.4 4.0 79 8 4 64.4 97.75     LegendNANA
03:00 Legend Double Dagger 6.4 3.7 83 14 3 64.4 97.74     LegendNANA
04:00 Legend Double Dagger 5.9 3.6 85 10 4 64.4 97.74     Clear
05:00 Legend Double Dagger 6.7 4.2 84 4 3 64.4 97.74     LegendNANA
06:00 Legend Double Dagger 5.5 3.4 86 10 6 64.4 97.72     LegendNANA
07:00 Legend Double Dagger 6.5 4.3 86 3 3 64.4 97.69     Cloudy
08:00 Legend Double Dagger 8.3 5.4 82 28 3 64.4 97.70     LegendNANA
09:00 Legend Double Dagger 9.8 5.2 73 8 9 64.4 97.68     LegendNANA
10:00 Legend Double Dagger 10.9 5.3 68 36 1 64.4 97.65     Cloudy
11:00 Legend Double Dagger 11.0 6.0 71 34 4 48.3 97.68     Rain
12:00 Legend Double Dagger 10.1 7.7 85 11 14 32.2 97.68     Rain
13:00 Legend Double Dagger 10.0 7.8 86 11 7 32.2 97.67     Cloudy
14:00 Legend Double Dagger 10.4 8.0 85 36 1 19.3 97.68     Rain
15:00 Legend Double Dagger 10.8 9.7 93 25 10 24.1 97.69     Rain
16:00 Legend Double Dagger 12.1 10.2 88 27 11 40.2 97.67     Rain
17:00 Legend Double Dagger 12.0 9.4 84 28 13 40.2 97.67     Rain
18:00 Legend Double Dagger 11.9 9.1 83 27 18 40.2 97.71     Rain
19:00 Legend Double Dagger 11.9 6.4 69 27 36 48.3 97.84     Mostly Cloudy
20:00 Legend Double Dagger 11.0 4.5 64 28 35 48.3 97.97     LegendNANA
21:00 Legend Double Dagger 11.0 4.5 64 28 35 48.3 97.97     Rain Showers
22:00 Legend Double Dagger 11.1 3.9 61 28 42 48.3 97.99     Cloudy
23:00 Legend Double Dagger 10.9 3.3 59 27 35 64.4 98.06     LegendNANA

Notes on Data Quality.

Legend

  • E = Estimated
  • M = Missing
  • NA = Not Available
  • ‡ = Partner data that is not subject to review by the National Climate Archives
Date modified: